Flag for Germany Weather past 2 weeks in Bünde, North Rhine-Westphalia, Germany

Now
54 °F

Partly sunny.


Feels Like: 52 °F
Forecast: 47 / 56 °F
Wind: 7 mph from Southwest

Location: Bueckeburg

Current Time: Oct 23, 2014 at 5:36:48 PM

Latest Report: Oct 23, 2014 at 4:20 PM


Visibility: N/A

Pressure: 30.18 "Hg

Humidity: 82%

Dew point: 48 °F

Location of BündeLocation

Historic Weather in Bünde — Graph

°F

Bünde temperature yesterday

Maximum temperature yesterday: 52 °F (at 3:20 PM)
Minimum temperature yesterday: 46 °F (at 2:20 AM)
Average temperature yesterday: 49 °F

Past Weeks' High & Low Weather Summary

 TemperatureHumidityPressure
High73 °F (Oct 19, 2:20 PM)100% (Oct 11, 2:20 AM)30.21 "Hg (Oct 11, 2:20 AM)
Low46 °F (Oct 22, 2:20 AM)49% (Oct 14, 4:20 PM)29.42 "Hg (Oct 21, 5:20 PM)
Average57 °F82%29.84 "Hg
* Reported Oct 8 4:20 PM — Oct 23 4:20 PM, Bünde, Weather by CustomWeather, © 2014

Note: Actual official high and low records may vary slightly from our data, if they occured in-between our weather recording intervals... More about our weather records

Advertising

Bünde weather history for previous 24 hours

 ConditionsComfort  
Time TempWeatherWind HumidityBarometerVisibility
4:20 PM
Oct 23
54 °FPartly sunny.7 mph82%30.18 "HgN/A
3:20 PM52 °FBroken clouds.7 mph88%30.18 "HgN/A
2:20 PM52 °FPartly sunny.8 mph82%30.18 "HgN/A
1:20 PM52 °FPartly sunny.8 mph82%30.21 "HgN/A
12:20 PM52 °FPartly sunny.7 mph77%30.21 "HgN/A
11:20 AM52 °FBroken clouds.7 mph77%30.21 "HgN/A
10:20 AM52 °FBroken clouds.7 mph77%30.18 "HgN/A
9:20 AM48 °FPartly sunny.2 mph87%30.18 "HgN/A
8:20 AM46 °FPartly cloudy.3 mph87%30.18 "HgN/A
7:20 AM48 °FPassing clouds.3 mph82%30.15 "HgN/A
6:20 AM46 °FPassing clouds.2 mph87%30.15 "HgN/A
5:20 AM48 °FPassing clouds.1 mph82%30.12 "HgN/A
4:20 AM48 °FPassing clouds.2 mph82%30.12 "HgN/A
3:20 AM48 °FPassing clouds.9 mph82%30.12 "HgN/A
2:20 AM50 °FPassing clouds.8 mph71%30.09 "HgN/A
1:20 AM50 °FPassing clouds.10 mph71%30.09 "HgN/A
12:20 AM50 °FPassing clouds.10 mph71%30.09 "HgN/A
11:20 PM
Oct 22
50 °FPassing clouds.9 mph71%30.09 "HgN/A
10:20 PM50 °FPassing clouds.10 mph71%30.07 "HgN/A
9:20 PM50 °FPassing clouds.13 mph76%30.07 "HgN/A
8:20 PM50 °FOvercast.14 mph76%30.01 "HgN/A
7:20 PM52 °FDrizzle. Overcast.12 mph67%30.01 "Hg6 mi
6:20 PM52 °FOvercast.16 mph72%29.98 "HgN/A
5:20 PM52 °FPartly sunny.17 mph72%29.92 "HgN/A
Weather by CustomWeather, © 2014

See weather overviewHow to use our weather pages